Location: Erfurt
(50.9688°N, 11.0193°E)
Time: 15:32:13
(UTC+01:00)

ISS - Pass Details

Date: 08 January 2018
Orbit: 402 x 407 km, 51.6° (Epoch: 21 January)

Event Time Altitude Azimuth Distance (km) Brightness Sun altitude
Exits shadow 06:38:33 32° 278° (W) 725 -3.1 -14.7°
Maximum altitude 06:39:56 82° 195° (SSW) 416 -3.9 -14.5°
Drops below altitude 10° 06:43:14 10° 107° (ESE) 1,468 0.5 -14.0°
Sets 06:45:19 0° 107° (ESE) 2,328 2.1 -13.7°
